Location: Alfortville
(48.8058°N, 2.4204°E)
Time: 17:01:37
(UTC+00:00)

Meteor 1-19 Rocket - Pass Details

Date: 13 December 2023
Orbit: 806 x 928 km, 81.2° (Epoch: 04 March)

Event Time Altitude Azimuth Distance (km) Brightness Sun altitude
Exits shadow 03:50:26 - 360° (N) 3,427 7.4 -35.7°
Reaches altitude 10° 03:53:35 10° 19° (NNE) 2,623 7.0 -35.2°
Maximum altitude 03:57:04 16° 55° (NE) 2,218 6.9 -34.6°
Drops below altitude 10° 04:00:30 10° 91° (E) 2,578 7.5 -34.1°
Sets 04:04:02 0° 113° (ESE) 3,489 8.3 -33.5°
